Preview of NWS' New Version of Forecast
This preview is not operational and should not be used for support decisions.

Regional Weather Roundup (RWR)

Issued by Gray - Portland, ME (GYX)

                            
000
ASUS41 KGYX 210810
RWRGYX
WEATHER ROUNDUP FOR MAINE AND NEW HAMPSHIRE
NATIONAL WEATHER SERVICE GRAY ME
400 AM EDT SUN APR 21 2019

MEZ002-005-006-010-012-015-018-020-021-024-026-027-029-210900-
MAINE
  
CITY           SKY/WX    TMP DP  RH WIND       PRES   REMARKS
PORTLAND       CLOUDY    51  50  96 S9        29.98R FOG              
SANFORD        LGT RAIN  57  56  96 S7        29.97R                  
BAR HARBOR     LGT RAIN  52  52 100 S10       30.06R FOG              
WISCASSET      CLOUDY    52  51  97 VRB3      30.00F                  
ROCKLAND       LGT RAIN  50  50 100 SE9       30.01F VSB 1/2          
FRYEBURG       LGT RAIN  58  57  97 S5        29.95R FOG              
LEWISTONAUBURN LGT RAIN  54  54 100 SE12G17   29.96R FOG              
AUGUSTA        LGT RAIN  53  53 100 S10       29.98S FOG              
WATERVILLE     LGT RAIN  55  55 100 S6        29.95F                  
BANGOR         FOG       52  51  97 S12       30.03R VSB 1            
GREENVILLE       N/A     46  45  96 SE10      29.94F                  
MILLINOCKET    FOG       41  39  93 CALM      30.03S VSB 3/4          
HOULTON        CLOUDY    39  39 100 CALM      30.03R FOG              
PRESQUE ISLE   CLOUDY    41  40  96 S8        30.02S FOG              
FRENCHVILLE    FOG       40  37  89 E10       29.97F VSB 1/4          
CARIBOU        FOG       39  38  96 CALM      29.99S VSB 1/2          
$$

NHZ002-005-008-009-011-012-014-210900-
NEW HAMPSHIRE
  
CITY           SKY/WX    TMP DP  RH WIND       PRES   REMARKS
PORTSMOUTH     LGT RAIN  54  54 100 SE6       29.96R FOG              
ROCHESTER      LGT RAIN  58  58 100 SE5       29.96R                  
NASHUA         CLOUDY    58  58 100 CALM      29.96R                  
MANCHESTER     CLOUDY    60  58  92 S6        29.94R                  
CONCORD        CLOUDY    57  56  96 SE3       29.94R                  
LACONIA        CLOUDY    56  55  97 SW3       29.95R                  
PLYMOUTH       CLOUDY    54  52  94 CALM      29.94S                  
BERLIN         LGT RAIN  60  56  86 S7        29.93R FOG              
WHITEFIELD     LGT RAIN  57  52  83 W5        29.92R                  
JAFFREY        CLOUDY    56  53  90 S5        29.96R                  
KEENE          CLOUDY    54  54 100 CALM      29.95R                  
LEBANON        MOCLDY    54  50  86 CALM      29.91S                  
MT WASHINGTON  LGT RAIN  41  41 100 SW28G33     N/A  VSB 0            
$$

VTZ005-007-008-210900-
VERMONT
  
CITY           SKY/WX    TMP DP  RH WIND       PRES   REMARKS
ST JOHNSBURY     N/A     55  51  86 MISG      29.90R                  
MONTPELIER     MOCLDY    55  50  83 SE9       29.92R                  
BURLINGTON     FAIR      53  47  79 S5        29.85R                  
$$

MAZ007-012-024-CTZ003-RIZ002-NYZ038-NYZ072-210900-
SOUTHERN NEW ENGLAND AND NY
  
CITY           SKY/WX    TMP DP  RH WIND       PRES   REMARKS
BOSTON         CLOUDY    59  56  89 S6        29.96S                  
WORCESTER      CLOUDY    53  53 100 SW8       29.96F                  
NANTUCKET      CLOUDY    52  51  97 S7        30.03R FOG              
PROVIDENCE     CLOUDY    55  54  96 S6        29.98R                  
HARTFORD       MOCLDY    55  53  93 SE7       29.93R                  
ALBANY         CLOUDY    55  48  77 S7        29.88R                  
NEW YORK CITY  MOCLDY    53  49  86 E5        29.88S                  
$$

ANZ081-ANZ082-ANZ150-NHZ014-MEZ023>029-210900-
COASTAL MARINE OBSERVATIONS
  
STATION/POSITION TIME  TEMP    WIND        PRES    WAVE
                       AIR SEA DIR/SP/G            HT/PER
                 (UTC) (F)     (DEG/KT/KT) (MB)    (FT/S)
ISLE OF SHOALS   0700   49     140/ 16/ 20 1013.4F
JEFFREYS LEDGE   0738      43                N/A     7/ 9
$$

.............KEY..............
   WCI - WIND CHILL
   TC  - TEMPERATURE IN CELSIUS
   VSB - VISIBILITY IN MILES
   HX  - HEAT INDEX
   FAIR- INDICATES FEW OR NO CLOUDS BELOW 12,000 FT, WITH NO 
         SIGNIFICANT WEATHER AND/OR OBSTRUCTIONS TO VISIBILITY.